DW4847 Weather Reports


Display with metric or nautical units.
time (UTC)temp
F
wind
direction
speed
MPH
gust
MPH
rain 1hr
in
rain 24hr
in
rain mn
in
humidity
%
barometer
mb
20260510174536 66 226 3.0 7.0 0.00 0.22 0.00 63 1011.0
20260510174049 66 351 1.0 9.0 0.00 0.22 0.00 64 1010.9
20260510173532 66 276 4.0 9.0 0.00 0.22 0.00 63 1011.1
20260510173047 66 285 2.0 6.0 0.00 0.22 0.00 65 1011.1
20260510172541 65 213 2.0 6.0 0.00 0.22 0.00 67 1011.2
20260510172026 64 238 2.0 5.0 0.00 0.22 0.00 66 1011.1
20260510171535 64 330 2.0 7.0 0.00 0.22 0.00 66 1011.0
20260510171030 64 232 2.0 7.0 0.00 0.22 0.00 66 1011.1
20260510170536 65 319 1.0 6.0 0.00 0.22 0.00 64 1011.2
20260510170030 65 286 2.0 6.0 0.00 0.22 0.00 64 1011.3
20260510165545 65 186 1.0 4.0 0.00 0.24 0.00 64 1011.1
20260510165105 64 333 1.0 3.0 0.00 0.24 0.00 67 1011.1
20260510164528 64 286 1.0 4.0 0.00 0.24 0.00 69 1011.2
20260510164023 63 123 2.0 4.0 0.00 0.24 0.00 68 1011.3
20260510163528 63 199 2.0 3.0 0.00 0.24 0.00 71 1011.4
20260510163041 62 220 0.0 4.0 0.00 0.24 0.00 72 1011.6
20260510162538 62 193 1.0 4.0 0.00 0.24 0.00 71 1011.5
20260510162023 63 279 1.0 3.0 0.00 0.24 0.00 70 1011.6
20260510161538 63 355 1.0 4.0 0.00 0.24 0.00 70 1011.4
20260510161023 63 288 1.0 5.0 0.00 0.24 0.00 70 1011.5
20260510160538 63 158 1.0 5.0 0.00 0.24 0.00 71 1011.3
20260510160051 63 315 2.0 5.0 0.00 0.24 0.00 71 1011.4
20260510155544 63 319 1.0 7.0 0.00 0.26 0.00 72 1011.5
20260510155028 62 182 2.0 7.0 0.00 0.26 0.00 71 1011.6
20260510154523 62 190 2.0 7.0 0.00 0.26 0.00 70 1011.6
20260510154029 62 170 2.0 6.0 0.00 0.26 0.00 70 1011.7
20260510153607 62 192 3.0 7.0 0.00 0.26 0.00 69 1011.7
20260510153032 62 128 4.0 7.0 0.00 0.26 0.00 70 1011.6
20260510152545 62 174 1.0 4.0 0.00 0.26 0.00 72 1011.7
20260510152028 62 229 1.0 4.0 0.00 0.26 0.00 72 1011.7
20260510151524 61 229 2.0 7.0 0.00 0.26 0.00 72 1011.6
20260510151032 61 304 2.0 7.0 0.00 0.26 0.00 73 1011.7
20260510150525 61 225 0.0 5.0 0.00 0.26 0.00 74 1011.6
20260510150040 61 165 2.0 5.0 0.00 0.26 0.00 74 1011.6
20260510145524 61 173 1.0 4.0 0.00 0.28 0.00 75 1011.6
20260510145039 61 163 2.0 6.0 0.00 0.28 0.00 75 1011.4
20260510144523 61 144 3.0 6.0 0.00 0.28 0.00 74 1011.4
20260510144039 60 217 2.0 4.0 0.00 0.28 0.00 76 1011.4
20260510143524 60 242 1.0 5.0 0.00 0.28 0.00 78 1011.4
20260510143038 60 170 3.0 5.0 0.00 0.28 0.00 77 1011.5
20260510142530 60 163 2.0 4.0 0.00 0.28 0.00 78 1011.4
20260510142035 60 154 2.0 4.0 0.00 0.28 0.00 78 1011.4
20260510141527 60 174 3.0 5.0 0.00 0.28 0.00 79 1011.4
20260510141041 60 223 2.0 5.0 0.00 0.28 0.00 79 1011.5
20260510140524 59 205 0.0 4.0 0.00 0.28 0.00 82 1011.4
20260510140039 59 318 1.0 8.0 0.00 0.28 0.00 82 1011.5
20260510135526 58 313 1.0 8.0 0.00 0.30 0.00 82 1011.5
20260510135059 58 154 2.0 4.0 0.00 0.30 0.00 83 1011.5
20260510134532 57 226 1.0 5.0 0.00 0.30 0.00 85 1011.6
20260510134045 57 190 1.0 5.0 0.00 0.30 0.00 87 1011.6
20260510133547 56 222 2.0 5.0 0.00 0.30 0.00 86 1011.6
20260510133041 55 180 1.0 3.0 0.00 0.30 0.00 88 1011.6
20260510132556 55 138 1.0 4.0 0.00 0.30 0.00 88 1011.7
20260510132050 54 193 2.0 4.0 0.00 0.30 0.00 89 1011.8
20260510131536 54 142 1.0 3.0 0.00 0.30 0.00 92 1011.8
20260510131031 53 355 0.0 1.0 0.00 0.30 0.00 93 1011.8
20260510130544 52 338 0.0 1.0 0.00 0.30 0.00 93 1011.7
20260510130028 52 338 0.0 0.0 0.00 0.30 0.00 93 1011.6
20260510125524 51 338 0.0 1.0 0.00 0.32 0.00 94 1011.6
20260510125027 51 337 0.0 1.0 0.00 0.32 0.00 94 1011.6
20260510124523 51 339 0.0 1.0 0.00 0.32 0.00 94 1011.5
20260510124037 51 341 0.0 0.0 0.00 0.32 0.00 94 1011.4
20260510123541 51 341 0.0 0.0 0.00 0.32 0.00 94 1011.4
20260510123055 51 340 0.0 0.0 0.00 0.32 0.00 94 1011.4
20260510122549 50 344 0.0 1.0 0.00 0.32 0.00 94 1011.3
20260510122035 50 344 0.0 0.0 0.00 0.32 0.00 94 1011.5
20260510121530 50 344 0.0 0.0 0.00 0.32 0.00 94 1011.5
20260510121101 50 344 0.0 0.0 0.00 0.32 0.00 94 1011.4
20260510120527 50 344 0.0 0.0 0.00 0.32 0.00 94 1011.4
20260510120041 50 344 0.0 0.0 0.00 0.32 0.00 94 1011.4
20260510115528 50 344 0.0 0.0 0.00 0.32 0.00 94 1011.4
20260510114537 50 344 0.0 0.0 0.00 0.32 0.00 94 1011.4
20260510114022 49 344 0.0 0.0 0.00 0.32 0.00 94 1011.4
20260510113537 49 344 0.0 0.0 0.00 0.32 0.00 94 1011.5
20260510113023 49 343 0.0 0.0 0.00 0.32 0.00 94 1011.4
20260510112537 49 355 0.0 0.0 0.00 0.32 0.00 94 1011.4
20260510112024 49 349 0.0 0.0 0.00 0.32 0.00 94 1011.4
20260510111538 49 349 0.0 1.0 0.00 0.32 0.00 94 1011.4
20260510111032 49 349 0.0 1.0 0.00 0.32 0.00 94 1011.4
20260510110539 49 349 0.0 0.0 0.00 0.32 0.00 94 1011.3
20260510110050 49 349 0.0 1.0 0.00 0.32 0.00 94 1011.1
20260510105535 49 349 0.0 1.0 0.00 0.39 0.00 94 1011.1
20260510105023 49 146 0.0 0.0 0.00 0.39 0.00 94 1011.2
20260510104556 49 146 0.0 0.0 0.00 0.39 0.00 94 1011.2
20260510104029 49 147 0.0 2.0 0.00 0.39 0.00 94 1011.1
20260510103536 48 148 1.0 2.0 0.00 0.39 0.00 94 1011.0
20260510103050 48 196 0.0 0.0 0.00 0.39 0.00 94 1011.1
20260510102523 48 196 0.0 0.0 0.00 0.39 0.00 94 1010.9
20260510102028 48 196 0.0 1.0 0.00 0.39 0.00 94 1010.8
20260510101524 48 196 0.0 1.0 0.00 0.39 0.00 94 1010.7
20260510101033 48 196 0.0 1.0 0.00 0.39 0.00 94 1010.5
20260510100538 48 195 0.0 0.0 0.00 0.39 0.00 94 1010.5
20260510100033 48 195 0.0 0.0 0.00 0.39 0.00 94 1010.6
20260510095547 48 195 0.0 0.0 0.00 0.47 0.00 94 1010.5
20260510095033 48 196 0.0 0.0 0.00 0.47 0.00 94 1010.4
20260510094529 48 196 0.0 0.0 0.00 0.47 0.00 94 1010.4
20260510094043 48 196 0.0 0.0 0.00 0.47 0.00 94 1010.3
20260510093528 48 196 0.0 0.0 0.00 0.47 0.00 94 1010.2
20260510093041 48 196 0.0 0.0 0.00 0.47 0.00 94 1009.9
20260510092527 48 196 0.0 1.0 0.00 0.47 0.00 94 1009.9
20260510092022 48 196 0.0 1.0 0.00 0.47 0.00 94 1009.8
20260510091556 48 196 0.0 0.0 0.00 0.47 0.00 94 1009.6
20260510091039 48 195 0.0 1.0 0.00 0.47 0.00 94 1009.7
20260510090534 48 196 0.0 2.0 0.00 0.47 0.00 94 1009.7
20260510090047 48 196 0.0 2.0 0.00 0.47 0.00 94 1009.8
20260510085532 48 196 1.0 2.0 0.00 0.53 0.00 94 1009.8
20260510085026 48 196 0.0 1.0 0.00 0.53 0.00 94 1009.9
20260510084531 48 196 0.0 1.0 0.00 0.53 0.00 94 1009.8
20260510084026 48 196 0.0 2.0 0.00 0.53 0.00 94 1009.9
20260510083559 48 196 0.0 2.0 0.00 0.53 0.00 94 1010.1
20260510083025 48 184 1.0 2.0 0.00 0.53 0.00 94 1010.1
20260510082534 48 194 1.0 2.0 0.00 0.53 0.00 94 1010.2
20260510082049 48 201 1.0 3.0 0.00 0.53 0.00 94 1010.5
20260510081603 48 201 1.0 3.0 0.00 0.53 0.00 94 1010.5
20260510081028 48 175 0.0 2.0 0.00 0.53 0.00 94 1010.5
20260510080543 48 175 0.0 2.0 0.00 0.53 0.00 94 1010.4
20260510080028 48 175 1.0 3.0 0.00 0.53 0.00 94 1010.4
20260510075536 48 174 0.0 3.0 0.00 0.53 0.00 95 1010.6
20260510075049 48 192 1.0 3.0 0.00 0.53 0.00 94 1010.7
20260510074536 48 185 0.0 2.0 0.00 0.53 0.00 94 1010.6
20260510074052 48 159 0.0 1.0 0.00 0.53 0.00 94 1010.6
20260510073546 48 159 0.0 2.0 0.00 0.53 0.00 95 1010.6
20260510073032 47 78 0.0 3.0 0.00 0.53 0.00 95 1010.7
20260510072525 47 169 0.0 0.0 0.00 0.53 0.00 94 1010.7
20260510072032 47 169 0.0 1.0 0.00 0.53 0.00 94 1010.6
20260510071527 47 169 0.0 1.0 0.00 0.53 0.00 94 1010.4
20260510071041 47 169 0.0 2.0 0.00 0.53 0.00 94 1010.3
20260510070528 47 169 0.0 2.0 0.00 0.53 0.00 94 1010.3
20260510070042 46 169 0.0 0.0 0.00 0.53 0.00 94 1010.1
20260510065528 46 169 0.0 0.0 0.00 0.53 0.00 94 1010.0
20260510065023 46 169 0.0 0.0 0.00 0.53 0.00 94 1010.1
20260510064556 46 169 0.0 2.0 0.00 0.53 0.00 94 1010.1
20260510064023 46 169 0.0 2.0 0.00 0.53 0.00 94 1010.2
20260510063533 46 169 0.0 1.0 0.00 0.53 0.00 94 1010.1
20260510063047 46 169 0.0 1.0 0.00 0.53 0.00 93 1010.1
20260510062533 46 169 0.0 0.0 0.00 0.53 0.00 93 1010.0
20260510062027 46 169 0.0 0.0 0.00 0.53 0.00 93 1010.0
20260510061534 46 169 0.0 0.0 0.00 0.53 0.00 93 1010.0
20260510061028 46 169 0.0 0.0 0.00 0.53 0.00 93 1010.0
20260510060543 46 169 0.0 0.0 0.00 0.53 0.00 93 1010.1
20260510060028 46 169 0.0 0.0 0.00 0.53 0.00 93 1010.2
20260510055543 46 169 0.0 0.0 0.00 0.53 0.00 93 1010.2
20260510055057 46 169 0.0 0.0 0.00 0.53 0.00 93 1010.2
20260510054541 46 169 0.0 0.0 0.00 0.53 0.00 93 1010.4
20260510054036 46 169 0.0 0.0 0.00 0.53 0.00 93 1010.3
20260510053522 46 169 0.0 0.0 0.00 0.53 0.00 94 1010.2
20260510053037 46 169 0.0 0.0 0.00 0.53 0.00 94 1010.1
20260510052524 46 169 0.0 0.0 0.00 0.53 0.00 94 1010.1
20260510052038 46 169 0.0 0.0 0.00 0.53 0.00 94 1010.3
20260510051552 46 169 0.0 0.0 0.00 0.53 0.00 93 1010.3
20260510051046 46 169 0.0 0.0 0.00 0.53 0.00 93 1010.3
20260510050533 46 169 0.0 1.0 0.00 0.53 0.00 93 1010.4
20260510050027 46 169 0.0 1.0 0.00 0.53 0.00 93 1010.4
20260510045529 46 169 0.0 0.0 0.00 0.53 0.00 93 1010.4
20260510045024 46 169 0.0 1.0 0.00 0.53 0.00 93 1010.4
20260510044538 46 169 0.0 0.0 0.00 0.53 0.00 93 1010.2
20260510044023 47 169 0.0 0.0 0.00 0.53 0.00 93 1010.2
20260510043534 47 169 0.0 0.0 0.00 0.53 0.00 93 1010.2
20260510043038 47 169 0.0 0.0 0.00 0.53 0.00 93 1010.4
20260510042531 47 169 0.0 0.0 0.00 0.53 0.00 93 1010.4
20260510042047 47 169 0.0 1.0 0.00 0.53 0.00 93 1010.3
20260510041533 47 169 0.0 1.0 0.00 0.53 0.00 93 1010.3
20260510041027 47 167 0.0 1.0 0.00 0.53 0.00 93 1010.4
20260510040600 48 167 0.0 0.0 0.00 0.53 0.00 93 1010.3
20260510040025 48 167 0.0 0.0 0.00 0.53 0.00 93 1010.2
20260510035600 48 167 0.0 0.0 0.00 0.53 0.53 93 1010.2
20260510035053 48 167 0.0 1.0 0.00 0.53 0.53 94 1010.2
20260510034547 48 167 0.0 1.0 0.00 0.53 0.53 94 1010.2
20260510034034 48 167 0.0 1.0 0.00 0.53 0.53 94 1010.0
20260510033529 48 167 0.0 1.0 0.00 0.53 0.53 94 1010.0
20260510033036 48 167 0.0 0.0 0.00 0.53 0.53 94 1010.1
20260510032531 47 167 0.0 1.0 0.00 0.53 0.53 94 1010.2
20260510032046 47 167 0.0 2.0 0.00 0.53 0.53 94 1010.3
20260510031551 47 171 0.0 0.0 0.00 0.53 0.53 93 1010.3
20260510031025 47 171 0.0 2.0 0.00 0.53 0.53 93 1010.3
20260510030540 47 171 1.0 2.0 0.00 0.53 0.53 93 1010.4
20260510030026 47 165 0.0 0.0 0.00 0.53 0.53 93 1010.2
20260510025537 47 165 0.0 0.0 0.00 0.53 0.53 93 1010.3
20260510025022 47 165 0.0 1.0 0.00 0.53 0.53 93 1010.4
20260510024537 47 165 0.0 1.0 0.00 0.53 0.53 93 1010.3
20260510024024 47 165 0.0 0.0 0.00 0.53 0.53 93 1010.2
20260510023538 47 165 0.0 1.0 0.00 0.53 0.53 93 1010.3
20260510023033 47 165 0.0 1.0 0.00 0.53 0.53 93 1010.4
20260510022539 47 165 0.0 0.0 0.00 0.53 0.53 93 1010.3
20260510022034 47 165 0.0 1.0 0.00 0.53 0.53 93 1010.4
20260510021549 47 165 0.0 1.0 0.00 0.53 0.53 93 1010.4
20260510021035 47 165 0.0 0.0 0.00 0.53 0.53 93 1010.2
20260510020530 47 165 0.0 0.0 0.00 0.53 0.53 93 1010.3
20260510020045 47 165 0.0 1.0 0.00 0.53 0.53 93 1010.2
20260510015531 47 165 0.0 1.0 0.00 0.53 0.53 92 1010.1
20260510015046 47 165 0.0 0.0 0.00 0.53 0.53 92 1010.0
20260510014531 47 165 0.0 0.0 0.00 0.53 0.53 92 1010.3
20260510014025 47 165 0.0 0.0 0.00 0.53 0.53 92 1010.2
20260510013531 47 165 0.0 2.0 0.00 0.53 0.53 92 1010.4
20260510013026 47 165 0.0 2.0 0.00 0.53 0.53 92 1010.5
20260510012541 47 163 0.0 1.0 0.00 0.53 0.53 92 1010.6
20260510012047 48 163 0.0 1.0 0.00 0.53 0.53 92 1010.4
20260510011540 48 163 0.0 1.0 0.00 0.53 0.53 92 1010.5
20260510011034 48 163 0.0 1.0 0.00 0.53 0.53 92 1010.5
20260510010541 48 163 0.0 0.0 0.00 0.53 0.53 92 1010.3
20260510010035 48 163 0.0 1.0 0.00 0.53 0.53 92 1010.3
20260510005538 48 163 0.0 1.0 0.00 0.53 0.53 92 1010.2
20260510005052 48 163 0.0 0.0 0.00 0.53 0.53 91 1010.1
20260510004525 48 163 0.0 1.0 0.00 0.53 0.53 91 1009.9
20260510004031 49 163 0.0 1.0 0.00 0.53 0.53 92 1009.9
20260510003525 49 163 0.0 1.0 0.00 0.53 0.53 92 1009.7
20260510003040 49 163 0.0 2.0 0.00 0.53 0.53 92 1009.6
20260510002526 49 164 1.0 3.0 0.00 0.53 0.53 92 1009.5
20260510002101 49 164 1.0 2.0 0.00 0.53 0.53 92 1009.5
20260510001534 49 163 0.0 0.0 0.00 0.53 0.53 91 1009.5
20260510001042 49 163 0.0 1.0 0.00 0.53 0.53 91 1009.5
20260510000537 49 163 0.0 1.0 0.00 0.53 0.53 91 1009.4
20260510000048 49 163 0.0 2.0 0.00 0.53 0.53 91 1009.5
20260509235533 49 163 1.0 2.0 0.00 0.53 0.53 91 1009.4
20260509235047 49 121 0.0 0.0 0.00 0.53 0.53 92 1009.4
20260509234533 49 121 0.0 0.0 0.00 0.53 0.53 92 1009.5
20260509234048 49 121 0.0 0.0 0.00 0.53 0.53 91 1009.4
20260509233543 49 121 0.0 0.0 0.00 0.53 0.53 91 1009.3
20260509233028 49 121 0.0 0.0 0.00 0.53 0.53 91 1009.4
20260509232523 49 121 0.0 1.0 0.00 0.53 0.53 91 1009.4
20260509232029 49 121 0.0 1.0 0.00 0.53 0.53 91 1009.4
20260509231541 49 121 0.0 2.0 0.00 0.53 0.53 91 1009.2
20260509231036 49 111 0.0 1.0 0.00 0.53 0.53 91 1009.3
20260509230538 49 113 0.0 1.0 0.00 0.53 0.53 91 1009.4
20260509230032 49 111 0.0 2.0 0.00 0.53 0.53 91 1009.5
20260509225547 49 111 1.0 2.0 0.00 0.53 0.53 91 1009.4
20260509225034 49 111 0.0 1.0 0.00 0.53 0.53 91 1009.6
20260509224549 49 111 0.0 2.0 0.00 0.53 0.53 91 1009.5
20260509224034 49 111 0.0 2.0 0.00 0.53 0.53 90 1009.5
20260509223529 49 125 0.0 3.0 0.00 0.53 0.53 90 1009.5
20260509223104 50 107 0.0 1.0 0.00 0.53 0.53 90 1009.5
20260509222529 50 124 0.0 1.0 0.00 0.53 0.53 90 1009.5
20260509222044 50 124 0.0 4.0 0.00 0.53 0.53 90 1009.4
20260509221538 50 175 1.0 4.0 0.00 0.53 0.53 90 1009.3
20260509221024 50 132 1.0 3.0 0.01 0.53 0.53 90 1009.4
20260509220538 50 284 0.0 3.0 0.01 0.53 0.53 90 1009.5
20260509220053 50 169 0.0 3.0 0.01 0.53 0.53 90 1009.5
20260509215536 50 169 1.0 3.0 0.01 0.53 0.53 90 1009.5
20260509215051 50 163 0.0 2.0 0.01 0.53 0.53 91 1009.5
20260509214545 50 209 0.0 5.0 0.01 0.53 0.53 90 1009.4
20260509214031 50 209 1.0 5.0 0.02 0.53 0.53 90 1009.4
20260509213545 50 281 0.0 2.0 0.02 0.53 0.53 90 1009.5
20260509213032 50 71 0.0 3.0 0.04 0.53 0.53 90 1009.5
20260509212527 50 155 0.0 3.0 0.04 0.53 0.53 90 1009.6
20260509212034 50 169 1.0 3.0 0.05 0.53 0.53 90 1009.7
20260509211528 49 130 1.0 3.0 0.06 0.53 0.53 90 1009.7
20260509211039 50 193 1.0 3.0 0.05 0.52 0.52 90 1009.7
20260509210525 49 32 1.0 4.0 0.06 0.52 0.52 90 1009.6
20260509210040 49 246 0.0 4.0 0.06 0.52 0.52 90 1009.7
20260509205555 50 323 1.0 4.0 0.07 0.52 0.52 89 1009.7
20260509205039 50 139 0.0 5.0 0.07 0.52 0.52 89 1009.7
20260509204533 50 184 0.0 4.0 0.07 0.52 0.52 90 1009.8
20260509204048 50 335 1.0 4.0 0.07 0.51 0.51 90 1009.8
20260509203533 50 130 2.0 4.0 0.06 0.50 0.50 90 1010.0
20260509203045 50 302 1.0 3.0 0.06 0.49 0.49 91 1009.9
20260509202530 50 170 1.0 3.0 0.06 0.49 0.49 91 1010.0
20260509202032 50 169 0.0 5.0 0.06 0.48 0.48 90 1010.2
20260509201538 50 219 2.0 5.0 0.06 0.47 0.47 90 1010.3
20260509201053 50 188 1.0 9.0 0.07 0.47 0.47 91 1010.3
20260509200527 50 205 3.0 9.0 0.07 0.46 0.46 92 1010.3
20260509200034 50 217 1.0 5.0 0.07 0.46 0.46 92 1010.4
20260509195546 50 300 1.0 4.0 0.07 0.45 0.45 93 1010.4
20260509195038 50 186 1.0 2.0 0.07 0.45 0.45 93 1010.3
20260509194525 50 254 0.0 2.0 0.08 0.45 0.45 93 1010.4
20260509194039 50 248 0.0 3.0 0.07 0.44 0.44 93 1010.5
20260509193534 50 196 0.0 1.0 0.08 0.44 0.44 93 1010.4
20260509193039 50 196 0.0 1.0 0.07 0.43 0.43 93 1010.5
20260509192534 49 128 0.0 1.0 0.07 0.43 0.43 93 1010.5
20260509192035 49 128 0.0 1.0 0.07 0.42 0.42 93 1010.4
20260509191527 49 128 0.0 1.0 0.06 0.41 0.41 93 1010.5
20260509191101 49 127 0.0 1.0 0.05 0.40 0.40 93 1010.4
20260509190528 49 127 0.0 0.0 0.04 0.39 0.39 93 1010.4
20260509190023 49 127 0.0 1.0 0.05 0.39 0.39 92 1010.4
20260509185538 49 127 0.0 2.0 0.04 0.38 0.38 92 1010.5
20260509185054 49 127 0.0 2.0 0.05 0.38 0.38 92 1010.6
20260509184538 49 87 0.0 0.0 0.04 0.37 0.37 92 1010.5
20260509184033 48 87 0.0 0.0 0.04 0.37 0.37 92 1010.4
20260509183548 48 87 0.0 0.0 0.03 0.36 0.36 92 1010.4
20260509183031 48 87 0.0 0.0 0.03 0.36 0.36 92 1010.5
20260509182544 48 87 0.0 1.0 0.04 0.36 0.36 92 1010.5
20260509182027 48 84 0.0 0.0 0.03 0.35 0.35 92 1010.5
20260509181541 48 84 0.0 1.0 0.03 0.35 0.35 92 1010.5
20260509181052 48 84 0.0 1.0 0.03 0.35 0.35 92 1010.5
20260509180532 48 150 0.0 1.0 0.02 0.34 0.34 92 1010.6
20260509180026 48 150 0.0 1.0 0.03 0.34 0.34 92 1010.6
20260509175531 48 150 0.0 2.0 0.03 0.34 0.34 92 1010.6
20260509175023 48 151 0.0 2.0 0.02 0.33 0.33 91 1010.6